DW9106 Madrid ES current weather conditions

sailwx.info

Wind from 026 at 0 knots gusting 3

Air temperature 14.4° C
Dewpoint -2.0° C

Last reported at 2015-Feb-27 14:44 UTC.
Time now 2015-Feb-27 15:17 UTC

Location: N 40°23' W 003°38'.
View on Google Maps.

See reports from other nearby stations

  
Tides and Currents Weather Stations Pressure Air Temp Water Temp Dewpoint Dewpoint Depression Visibility Wind Speed Wind Dir Waves Ship Positions
date/time (UTC)wind fromknots sea level pressurealtimeterstation pressurevisibilityair tempwater tempwave heightnotes
2015-Feb-27 14:44 026 0 gusting 3 14.4
2015-Feb-27 14:29 092 0 gusting 13 13.3
2015-Feb-27 14:14 048 5 gusting 9 13.9
2015-Feb-27 13:59 034 5 gusting 10 13.3
2015-Feb-27 13:44 080 3 gusting 9 13.3
2015-Feb-27 13:14 029 7 gusting 14 12.8
2015-Feb-27 12:59 055 5 gusting 12 12.8
2015-Feb-27 12:44 165 2 gusting 9 12.8
2015-Feb-27 12:29 079 5 gusting 11 12.8
2015-Feb-27 12:14 044 4 gusting 11 12.8
2015-Feb-27 11:59 074 1 gusting 8 12.8
2015-Feb-27 11:44 057 1 gusting 9 12.2
2015-Feb-27 11:29 038 2 gusting 8 12.2
2015-Feb-27 11:14 021 3 gusting 11 11.7
2015-Feb-27 10:59 005 4 gusting 11 11.1
2015-Feb-27 10:44 061 6 gusting 15 10.6
2015-Feb-27 10:29 055 5 gusting 13 10.0
2015-Feb-27 10:14 050 7 gusting 13 10.0
2015-Feb-27 09:59 013 6 gusting 13 9.4
2015-Feb-27 09:44 032 5 gusting 13 9.4
2015-Feb-27 09:29 059 7 gusting 14 9.4
2015-Feb-27 09:14 028 4 gusting 13 10.0
2015-Feb-27 08:59 053 2 gusting 8 9.4
2015-Feb-27 08:44 037 4 gusting 7 9.4
2015-Feb-27 08:29 051 3 gusting 6 9.4
2015-Feb-27 08:14 086 0 gusting 4 8.3
2015-Feb-27 07:59 072 1 gusting 2 8.3
2015-Feb-27 07:44 073 7.8
2015-Feb-27 07:29 073 7.8
2015-Feb-27 07:13 073 7.2
2015-Feb-27 06:58 073 7.2
2015-Feb-27 06:43 073 7.2
2015-Feb-27 06:28 043 0 gusting 3 7.2
2015-Feb-27 06:13 034 0 gusting 2 7.8
2015-Feb-27 05:58 034 0 gusting 2 7.8
2015-Feb-27 05:43 082 0 gusting 3 8.9
2015-Feb-27 05:28 311 8.9
2015-Feb-27 05:13 311 8.9
2015-Feb-27 04:58 276 3 gusting 6 8.9
2015-Feb-27 04:43 289 4 gusting 8 8.9
2015-Feb-27 04:28 261 3 gusting 9 8.9
2015-Feb-27 04:13 215 4 gusting 6 9.4
2015-Feb-27 03:58 269 4 gusting 10 9.4
2015-Feb-27 03:43 271 3 gusting 12 9.4
2015-Feb-27 03:28 129 5 gusting 11 10.0
2015-Feb-27 03:13 286 4 gusting 8 10.0
2015-Feb-27 02:58 289 2 gusting 8 10.0
2015-Feb-27 02:43 248 1 gusting 5 10.0
2015-Feb-27 02:28 232 2 gusting 6 10.0
2015-Feb-27 02:13 311 2 gusting 6 9.4
2015-Feb-27 01:58 262 3 gusting 7 10.0
2015-Feb-27 01:43 284 3 gusting 7 10.0
2015-Feb-27 01:28 355 2 gusting 6 10.0
2015-Feb-27 01:13 242 1 gusting 6 10.0
2015-Feb-27 00:58 255 2 gusting 5 10.0
2015-Feb-27 00:43 285 0 gusting 5 10.0
2015-Feb-27 00:28 223 0 gusting 6 10.0
2015-Feb-27 00:13 223 2 gusting 7 10.0
2015-Feb-26 23:58 302 0 gusting 3 10.0
2015-Feb-26 23:43 278 3 gusting 6 10.0
2015-Feb-26 23:28 262 0 gusting 5 10.6
2015-Feb-26 23:12 225 2 gusting 6 10.6
2015-Feb-26 22:57 258 1 gusting 4 10.6
2015-Feb-26 22:42 286 1 gusting 5 10.6
2015-Feb-26 22:27 244 0 gusting 5 10.6
2015-Feb-26 22:12 250 0 gusting 5 10.6
2015-Feb-26 21:57 149 0 gusting 5 11.1
2015-Feb-26 21:42 257 2 gusting 6 11.1
2015-Feb-26 21:27 231 1 gusting 5 11.1
2015-Feb-26 21:12 242 1 gusting 6 11.1
2015-Feb-26 20:57 288 3 gusting 7 11.1
2015-Feb-26 20:42 055 3 gusting 10 11.7
2015-Feb-26 20:27 286 1 gusting 6 11.7
2015-Feb-26 20:13 263 2 gusting 6 11.7
2015-Feb-26 19:58 281 3 gusting 7 11.7
2015-Feb-26 19:43 294 1 gusting 6 11.7
2015-Feb-26 19:28 273 0 gusting 6 11.7
2015-Feb-26 19:13 256 11.7
2015-Feb-26 18:58 257 11.7
2015-Feb-26 18:43 296 1 gusting 5 11.7
2015-Feb-26 18:28 263 1 gusting 4 11.7
2015-Feb-26 18:13 262 0 gusting 3 11.7
2015-Feb-26 17:57 268 12.2
2015-Feb-26 17:42 034 12.2
2015-Feb-26 17:27 034 12.2
2015-Feb-26 17:12 034 0 gusting 4 12.2
2015-Feb-26 16:57 052 2 gusting 7 12.2
2015-Feb-26 16:42 044 1 gusting 5 12.2
2015-Feb-26 16:27 048 1 gusting 3 12.2
2015-Feb-26 16:12 048 1 gusting 4 12.2
2015-Feb-26 15:57 246 12.2
2015-Feb-26 15:42 124 12.2
2015-Feb-26 15:27 275 0 gusting 6 12.8
2015-Feb-26 15:12 308 2 gusting 9 13.3
2015-Feb-26 14:57 084 1 gusting 7 12.8
2015-Feb-26 14:42 273 2 gusting 7 12.8
2015-Feb-26 14:27 284 1 gusting 6 12.8
2015-Feb-26 14:12 239 2 gusting 6 12.8
2015-Feb-26 13:57 223 3 gusting 7 12.2
2015-Feb-26 13:42 248 3 gusting 7 12.8
2015-Feb-26 13:27 275 0 gusting 5 12.8
2015-Feb-26 13:12 254 3 gusting 8 13.3
2015-Feb-26 12:57 235 1 gusting 6 13.3
2015-Feb-26 12:42 257 0 gusting 4 13.9
2015-Feb-26 12:27 279 13.9
2015-Feb-26 12:12 202 0 gusting 3 14.4
2015-Feb-26 11:57 259 14.4
2015-Feb-26 11:42 264 13.9
2015-Feb-26 11:27 190 14.4
2015-Feb-26 11:12 190 13.9
2015-Feb-26 10:57 192 0 gusting 2 13.3
2015-Feb-26 10:42 082 0 gusting 3 12.8
2015-Feb-26 10:27 048 0 gusting 4 12.2
2015-Feb-26 10:12 088 1 gusting 7 11.1
2015-Feb-26 09:57 061 3 gusting 6 11.1
2015-Feb-26 09:42 044 4 gusting 8 11.7
2015-Feb-26 09:27 062 0 gusting 3 12.2
2015-Feb-26 09:12 222 1 gusting 5 11.7
2015-Feb-26 08:57 221 1 gusting 8 11.1
2015-Feb-26 08:42 257 0 gusting 6 11.1
2015-Feb-26 08:26 230 2 gusting 8 10.6
2015-Feb-26 08:11 179 0 gusting 4 10.0
2015-Feb-26 07:56 343 1 gusting 7 10.0
2015-Feb-26 07:41 219 2 gusting 6 9.4
2015-Feb-26 07:26 351 1 gusting 6 9.4
2015-Feb-26 07:11 243 2 gusting 5 8.9
2015-Feb-26 06:56 290 0 gusting 5 8.9
2015-Feb-26 06:41 268 8.3
2015-Feb-26 06:26 276 8.3
2015-Feb-26 06:11 260 8.3
2015-Feb-26 05:56 213 8.9
2015-Feb-26 05:41 267 1 gusting 6 8.9
2015-Feb-26 05:26 263 8.9
2015-Feb-26 05:11 275 8.9
2015-Feb-26 04:56 188 1 gusting 7 8.9
2015-Feb-26 04:41 290 3 gusting 7 8.3
2015-Feb-26 04:28 298 0 gusting 3 7.2
2015-Feb-26 04:11 044 7.2
2015-Feb-26 03:56 044 7.8
2015-Feb-26 03:41 242 7.8
2015-Feb-26 03:26 044 8.3
2015-Feb-26 03:11 067 0 gusting 2 8.3
2015-Feb-26 02:56 294 7.8
2015-Feb-26 02:41 321 7.8
2015-Feb-26 02:26 034 7.8
2015-Feb-26 02:11 040 7.8
2015-Feb-26 01:56 281 7.8
2015-Feb-26 01:41 040 0 gusting 5 7.8
2015-Feb-26 01:26 067 0 gusting 2 7.8
2015-Feb-26 01:11 068 2 gusting 5 8.3
2015-Feb-26 00:56 093 8.3
2015-Feb-26 00:41 093 8.9
2015-Feb-26 00:26 257 2 gusting 6 9.4
2015-Feb-26 00:11 015 8.9
2015-Feb-25 23:56 296 8.9
2015-Feb-25 23:41 005 8.9
2015-Feb-25 23:26 360 0 gusting 1 9.4
2015-Feb-25 23:11 360 9.4
2015-Feb-25 22:55 049 0 gusting 6 9.4
2015-Feb-25 22:40 042 10.0
2015-Feb-25 22:25 042 9.4
2015-Feb-25 22:10 042 10.0
2015-Feb-25 21:55 042 10.0
2015-Feb-25 21:40 042 10.0
2015-Feb-25 21:25 043 1 gusting 2 10.6
2015-Feb-25 21:10 042 1 gusting 4 10.6
2015-Feb-25 20:55 052 11.1
2015-Feb-25 20:40 052 0 gusting 2 11.7
2015-Feb-25 20:25 265 12.2
2015-Feb-25 20:10 265 12.2
2015-Feb-25 19:55 266 0 gusting 3 12.2
2015-Feb-25 19:40 255 12.2
2015-Feb-25 19:25 313 0 gusting 5 12.2
2015-Feb-25 19:10 248 12.2
2015-Feb-25 18:55 199 1 gusting 7 12.2
2015-Feb-25 18:40 280 3 gusting 8 12.2
2015-Feb-25 18:25 246 1 gusting 6 12.2
2015-Feb-25 18:10 264 12.8
2015-Feb-25 17:55 282 0 gusting 6 12.8
2015-Feb-25 17:40 265 0 gusting 6 13.3
2015-Feb-25 17:25 321 2 gusting 6 13.9
2015-Feb-25 17:10 294 0 gusting 6 13.9
2015-Feb-25 16:55 265 1 gusting 10 13.9
2015-Feb-25 16:40 077 1 gusting 8 13.9
2015-Feb-25 16:25 032 5 gusting 12 13.9
2015-Feb-25 16:10 022 5 gusting 12 13.9
2015-Feb-25 15:55 091 5 gusting 13 13.9
2015-Feb-25 15:40 284 3 gusting 10 14.4
2015-Feb-25 15:25 169 2 gusting 19 13.9
2015-Feb-25 15:10 262 3 gusting 13 13.9